EW7655 Weather Reports


Display with metric or nautical units.
time (UTC)temp
F
wind
direction
speed
MPH
gust
MPH
rain 1hr
in
rain 24hr
in
rain mn
in
humidity
%
barometer
mb
20260507233044 79 169 8.0 0.0 0.00 0.00 0.00 12 1021.6
20260507231540 79 219 7.0 0.0 0.00 0.00 0.00 12 1021.5
20260507230045 78 126 11.0 0.0 0.00 0.00 0.00 12 1021.8
20260507224542 78 107 9.0 0.0 0.00 0.00 0.00 12 1021.7
20260507223037 78 106 7.0 0.0 0.00 0.00 0.00 12 1021.9
20260507221540 78 102 8.0 0.0 0.00 0.00 0.00 13 1021.8
20260507220037 79 135 5.0 0.0 0.00 0.00 0.00 12 1021.9
20260507214536 78 267 3.0 0.0 0.00 0.00 0.00 13 1022.7
20260507213041 77 253 5.0 0.0 0.00 0.00 0.00 14 1022.8
20260507211531 77 76 5.0 0.0 0.00 0.00 0.00 14 1022.5
20260507210029 77 206 7.0 0.0 0.00 0.00 0.00 14 1022.8
20260507204526 76 183 7.0 0.0 0.00 0.00 0.00 14 1023.5
20260507203032 75 113 6.0 0.0 0.00 0.00 0.00 15 1023.8
20260507201525 74 149 7.0 0.0 0.00 0.00 0.00 14 1024.2
20260507200020 74 117 5.0 0.0 0.00 0.00 0.00 15 1024.7
20260507194519 73 65 6.0 0.0 0.00 0.00 0.00 15 1025.1
20260507193018 73 47 4.0 0.0 0.00 0.00 0.00 16 1025.3
20260507191515 72 5 8.0 0.0 0.00 0.00 0.00 16 1025.7
20260507190014 72 32 6.0 0.0 0.00 0.00 0.00 16 1025.9
20260507184510 70 84 9.0 0.0 0.00 0.00 0.00 17 1026.4
20260507183011 70 80 8.0 0.0 0.00 0.00 0.00 17 1026.8
20260507181504 68 98 9.0 0.0 0.00 0.00 0.00 18 1026.5
20260507180100 68 86 10.0 0.0 0.00 0.00 0.00 19 1027.0
20260507174557 67 92 10.0 0.0 0.00 0.00 0.00 19 1027.5
20260507173054 66 97 8.0 0.0 0.00 0.00 0.00 19 1027.6
20260507171550 65 105 11.0 0.0 0.00 0.00 0.00 20 1027.7
20260507170048 65 57 11.0 0.0 0.00 0.00 0.00 20 1027.8
20260507164555 65 57 10.0 0.0 0.00 0.00 0.00 20 1027.8
20260507163037 65 30 10.0 0.0 0.00 0.00 0.00 21 1028.1
20260507161533 64 24 12.0 0.0 0.00 0.00 0.00 22 1028.5
20260507160030 63 61 7.0 0.0 0.00 0.00 0.00 23 1028.6
20260507154530 62 98 5.0 0.0 0.00 0.00 0.00 23 1029.1
20260507153026 62 38 4.0 0.0 0.00 0.00 0.00 24 1029.2
20260507151523 60 67 5.0 0.0 0.00 0.00 0.00 26 1029.1
20260507150023 60 355 3.0 0.0 0.00 0.00 0.00 27 1029.4
20260507144522 59 344 6.0 0.0 0.00 0.00 0.00 30 1029.4
20260507143009 57 355 5.0 0.0 0.00 0.00 0.00 35 1029.4
20260507141505 57 11 4.0 0.0 0.00 0.00 0.00 35 1029.2
20260507140001 57 337 3.0 0.0 0.00 0.00 0.00 37 1029.4
20260507134603 55 333 4.0 0.0 0.00 0.00 0.00 41 1029.2
20260507133113 54 337 4.0 0.0 0.00 0.00 0.00 43 1029.1
20260507131553 53 332 4.0 0.0 0.00 0.00 0.00 46 1028.7
20260507130056 51 327 5.0 0.0 0.00 0.00 0.00 49 1029.0
20260507124539 50 317 5.0 0.0 0.00 0.00 0.00 50 1028.7
20260507123037 50 330 5.0 0.0 0.00 0.00 0.00 50 1028.5
20260507121535 50 355 7.0 0.0 0.00 0.00 0.00 50 1028.4
20260507120042 51 355 9.0 0.0 0.00 0.00 0.00 51 1028.0
20260507114537 51 9 9.0 0.0 0.00 0.00 0.00 50 1028.0
20260507113027 52 360 8.0 0.0 0.00 0.00 0.00 47 1027.9
20260507111525 53 355 8.0 0.0 0.00 0.00 0.00 47 1027.7
20260507110023 53 360 7.0 0.0 0.00 0.00 0.00 47 1027.6
20260507104520 53 347 8.0 0.0 0.00 0.00 0.00 47 1027.6
20260507103018 54 346 9.0 0.0 0.00 0.00 0.00 46 1027.4
20260507101517 54 340 9.0 0.0 0.00 0.00 0.00 44 1027.6
20260507100011 55 343 9.0 0.0 0.00 0.00 0.00 42 1027.6
20260507094507 56 346 9.0 0.0 0.00 0.00 0.00 40 1027.2
20260507093006 57 355 9.0 0.0 0.00 0.00 0.00 39 1027.2
20260507091502 57 355 9.0 0.0 0.00 0.00 0.00 38 1027.0
20260507090004 58 338 10.0 0.0 0.00 0.00 0.00 38 1027.0
20260507084602 58 355 11.0 0.0 0.00 0.00 0.00 38 1027.1
20260507083058 58 10 11.0 0.0 0.00 0.00 0.00 38 1027.1
20260507081555 59 355 11.0 0.0 0.00 0.00 0.00 37 1027.1
20260507080116 59 360 9.0 0.0 0.00 0.00 0.00 37 1027.2
20260507074550 59 13 7.0 0.0 0.00 0.00 0.00 37 1027.2
20260507073052 59 355 7.0 0.0 0.00 0.00 0.00 36 1027.2
20260507071544 60 342 6.0 0.0 0.00 0.00 0.00 36 1027.4
20260507070041 61 346 6.0 0.0 0.00 0.00 0.00 34 1027.3
20260507064537 61 5 5.0 0.0 0.00 0.00 0.00 33 1027.0
20260507063036 62 23 5.0 0.0 0.00 0.00 0.00 33 1027.0
20260507061534 63 355 5.0 0.0 0.00 0.00 0.00 33 1026.8
20260507060036 63 30 6.0 0.0 0.00 0.00 0.00 32 1026.6
20260507054536 64 44 10.0 0.0 0.00 0.00 0.00 32 1026.5
20260507053030 64 51 6.0 0.0 0.00 0.00 0.00 32 1026.3
20260507051532 65 44 6.0 0.0 0.00 0.00 0.00 25 1026.1
20260507050032 67 285 3.0 0.0 0.00 0.00 0.00 19 1025.8
20260507044528 66 273 4.0 0.0 0.00 0.00 0.00 20 1025.6
20260507043028 66 305 3.0 0.0 0.00 0.00 0.00 20 1025.4
20260507041527 66 307 3.0 0.0 0.00 0.00 0.00 19 1025.6
20260507040027 67 327 3.0 0.0 0.00 0.00 0.00 19 1024.8
20260507034527 67 341 4.0 0.0 0.00 0.00 0.00 19 1024.6
20260507033029 69 343 5.0 0.0 0.00 0.00 0.00 18 1024.1
20260507031526 69 5 6.0 0.0 0.00 0.00 0.00 18 1023.6
20260507030026 70 355 7.0 0.0 0.00 0.00 0.00 17 1023.2
20260507024525 70 355 5.0 0.0 0.00 0.00 0.00 16 1022.9
20260507023025 71 342 4.0 0.0 0.00 0.00 0.00 15 1022.3
20260507021525 72 355 3.0 0.0 0.00 0.00 0.00 13 1022.5
20260507020029 73 24 5.0 0.0 0.00 0.00 0.00 13 1022.0
20260507014529 74 267 3.0 0.0 0.00 0.00 0.00 12 1021.6
20260507013040 74 282 2.0 0.0 0.00 0.00 0.00 12 1021.5
20260507011523 75 160 7.0 0.0 0.00 0.00 0.00 10 1021.8
20260507010031 76 240 5.0 0.0 0.00 0.00 0.00 10 1021.7
20260507004521 75 171 6.0 0.0 0.00 0.00 0.00 11 1021.5
20260507003020 76 170 11.0 0.0 0.00 0.00 0.00 11 1021.2
20260507001521 76 192 11.0 0.0 0.00 0.00 0.00 11 1021.1
20260507000019 75 152 10.0 0.0 0.00 0.00 0.00 11 1021.2
20260506234517 75 128 10.0 0.0 0.00 0.00 0.00 12 1021.3